Centralia, IL

3:41 PM CDT on April 28, 2017 (GMT -0500)
Centralia Municipal

Weather History for KENL - November, 2012

Change the Weather History Date:

Sunday, November 25, 2012

  Actual Average (KSLO) Record (KSLO)
Temperature  
Mean Temperature 42 °F -  
Max Temperature 53 °F 51 °F 72 °F (1990)
Min Temperature 32 °F 31 °F 15 °F (1991)
Degree Days  
Heating Degree Days 22    
Moisture  
Dew Point 30 °F    
Average Humidity 66    
Maximum Humidity 93    
Minimum Humidity 42    
Precipitation  
Precipitation 0.00 in - - ()
Sea Level Pressure  
Sea Level Pressure 29.98 in    
Wind  
Wind Speed 8 mph (SSW)    
Max Wind Speed 14 mph    
Max Gust Speed 16 mph    
Visibility 10 miles    
Events      
Averages and records for this station are not official NWS values.
T = Trace of Precipitation, MM = Missing Value Source: NWS Daily Summary

Daily Weather History Graph

Daily Weather History Graph

Search for Another Location

Airport or City:

Trip Planner

Search our weather history database for the weather conditions in past years. The results will help you decide how hot, cold, wet, or windy it might be!

Date:

Astronomy

Nov. 25, 2012 Rise Set
Actual Time 6:49 AM CST 4:37 PM CST
Civil Twilight 6:20 AM CST 5:06 PM CST
Nautical Twilight 5:47 AM CST 5:38 PM CST
Astronomical Twilight 5:16 AM CST 6:10 PM CST
Moon 2:53 PM CST (11/25) 4:04 AM CST (11/25)
Length of Visible Light 10h 45m
Length of Day
9h 48m
Waxing Gibbous, 93% of the Moon is Illuminated
Nov 25
Waxing Gibbous
Nov 28
Full
Dec 6
Last Quarter
Dec 13
New
Dec 19
First Quarter

Hourly Weather History & Observations

Time (CST) Temp. Windchill Dew Point Humidity Pressure Visibility Wind Dir Wind Speed Gust Speed Precip Events Conditions
12:15 AM 32.9 °F 25.9 °F 23.7 °F 69% 30.05 in 10.0 mi South 8.1 mph - N/A   Clear
12:35 AM 32.5 °F 26.2 °F 24.1 °F 71% 30.05 in 10.0 mi South 6.9 mph - N/A   Clear
12:55 AM 32.7 °F 25.7 °F 23.9 °F 70% 30.05 in 10.0 mi South 8.1 mph - N/A   Clear
1:15 AM 32.9 °F 25.3 °F 24.4 °F 71% 30.04 in 10.0 mi South 9.2 mph - N/A   Clear
1:35 AM 32.9 °F 25.3 °F 24.8 °F 72% 30.03 in 10.0 mi South 9.2 mph - N/A   Clear
1:55 AM 33.1 °F 26.1 °F 25.2 °F 73% 30.04 in 10.0 mi South 8.1 mph - N/A   Clear
2:15 AM 33.1 °F 26.1 °F 25.3 °F 73% 30.03 in 10.0 mi South 8.1 mph - N/A   Clear
2:35 AM 32.9 °F 25.3 °F 25.7 °F 75% 30.03 in 10.0 mi South 9.2 mph - N/A   Clear
2:55 AM 33.1 °F 26.1 °F 25.3 °F 73% 30.01 in 10.0 mi South 8.1 mph - N/A   Clear
3:15 AM 33.3 °F 25.7 °F 25.5 °F 73% 30.00 in 10.0 mi South 9.2 mph - N/A   Clear
3:35 AM 33.1 °F 25.5 °F 25.7 °F 74% 29.99 in 10.0 mi South 9.2 mph - N/A   Clear
3:55 AM 33.4 °F 25.9 °F 25.9 °F 74% 30.00 in 10.0 mi South 9.2 mph - N/A   Clear
4:15 AM 34.0 °F 27.2 °F 26.4 °F 74% 29.99 in 10.0 mi South 8.1 mph - N/A   Clear
4:35 AM 34.7 °F 26.9 °F 26.6 °F 72% 29.98 in 10.0 mi South 10.4 mph - N/A   Clear
4:55 AM 35.6 °F 28.6 °F 26.4 °F 69% 29.98 in 10.0 mi South 9.2 mph - N/A   Clear
5:15 AM 36.0 °F 28.5 °F 26.2 °F 68% 29.97 in 10.0 mi South 10.4 mph - N/A   Clear
5:35 AM 36.0 °F 28.0 °F 25.9 °F 67% 29.96 in 10.0 mi South 11.5 mph - N/A   Clear
5:55 AM 35.8 °F 27.8 °F 25.7 °F 67% 29.96 in 10.0 mi South 11.5 mph - N/A   Clear
6:15 AM 35.6 °F 28.6 °F 25.9 °F 68% 29.96 in 10.0 mi SSW 9.2 mph - N/A   Clear
6:35 AM 35.6 °F 27.5 °F 25.9 °F 68% 29.96 in 10.0 mi SSW 11.5 mph - N/A   Clear
6:55 AM 35.6 °F 28.6 °F 25.9 °F 68% 29.98 in 10.0 mi SSW 9.2 mph - N/A   Clear
7:15 AM 36.0 °F 29.0 °F 25.9 °F 67% 29.98 in 10.0 mi South 9.2 mph - N/A   Clear
7:35 AM 36.5 °F 30.3 °F 26.4 °F 67% 29.98 in 10.0 mi SSW 8.1 mph - N/A   Clear
7:55 AM 37.6 °F 31.0 °F 26.4 °F 64% 29.98 in 10.0 mi SSW 9.2 mph - N/A   Clear
8:15 AM 38.5 °F 31.1 °F 26.6 °F 62% 29.98 in 10.0 mi SSW 11.5 mph - N/A   Clear
8:35 AM 39.9 °F 32.1 °F 27.0 °F 60% 29.98 in 10.0 mi SSW 13.8 mph - N/A   Clear
8:55 AM 40.6 °F 33.4 °F 27.3 °F 59% 29.98 in 10.0 mi SSW 12.7 mph - N/A   Clear
9:15 AM 41.9 °F 35.4 °F 28.4 °F 59% 29.98 in 10.0 mi SSW 11.5 mph - N/A   Clear
9:35 AM 43.0 °F 38.2 °F 28.8 °F 57% 29.99 in 10.0 mi SSW 8.1 mph - N/A   Clear
9:55 AM 45.0 °F 39.7 °F 29.1 °F 54% 29.98 in 10.0 mi SSW 10.4 mph - N/A   Clear
10:15 AM 46.0 °F 41.0 °F 29.8 °F 53% 29.98 in 10.0 mi SW 10.4 mph - N/A   Clear
10:35 AM 46.8 °F - 28.8 °F 50% 29.97 in 10.0 mi SW 12.7 mph - N/A   Clear
10:55 AM 48.2 °F - 30.0 °F 49% 29.97 in 10.0 mi SW 12.7 mph - N/A   Clear
11:15 AM 49.3 °F - 29.8 °F 47% 29.96 in 10.0 mi SW 12.7 mph - N/A   Clear
11:35 AM 49.5 °F - 30.4 °F 48% 29.95 in 10.0 mi SW 12.7 mph - N/A   Clear
11:55 AM 50.5 °F - 30.7 °F 47% 29.95 in 10.0 mi SW 12.7 mph - N/A   Clear
12:15 PM 51.3 °F - 30.7 °F 45% 29.93 in 10.0 mi SW 12.7 mph - N/A   Clear
12:35 PM 51.4 °F - 30.9 °F 45% 29.93 in 10.0 mi WSW 11.5 mph 16.1 mph N/A   Clear
12:55 PM 51.8 °F - 30.0 °F 43% 29.92 in 10.0 mi SW 10.4 mph - N/A   Clear
1:15 PM 53.2 °F - 30.6 °F 42% 29.93 in 10.0 mi SW 9.2 mph - N/A   Clear
1:35 PM 53.8 °F - 31.5 °F 43% 29.93 in 10.0 mi WSW 9.2 mph - N/A   Clear
1:55 PM 53.4 °F - 30.9 °F 42% 29.92 in 10.0 mi WSW 8.1 mph - N/A   Unknown
2:15 PM 53.4 °F - 31.1 °F 43% 29.93 in 10.0 mi WSW 8.1 mph - N/A   Unknown
2:35 PM 53.6 °F - 31.5 °F 43% 29.93 in 10.0 mi West 9.2 mph - N/A   Clear
2:55 PM 53.6 °F - 31.3 °F 43% 29.93 in 10.0 mi WSW 6.9 mph - N/A   Clear
3:15 PM 53.4 °F - 31.3 °F 43% 29.93 in 10.0 mi WSW 3.5 mph - N/A   Clear
3:35 PM 53.6 °F - 32.7 °F 45% 29.94 in 10.0 mi WSW 4.6 mph - N/A   Clear
3:55 PM 52.7 °F - 33.3 °F 48% 29.94 in 10.0 mi WSW 3.5 mph - N/A   Clear
4:15 PM 51.6 °F - 35.1 °F 53% 29.94 in 10.0 mi Calm Calm - N/A   Clear
4:35 PM 50.0 °F - 34.2 °F 55% 29.95 in 10.0 mi Calm Calm - N/A   Clear
4:55 PM 48.9 °F - 34.2 °F 57% 29.95 in 10.0 mi Calm Calm - N/A   Clear
5:15 PM 47.1 °F - 34.9 °F 62% 29.96 in 10.0 mi Calm Calm - N/A   Clear
5:35 PM 44.1 °F 42.5 °F 34.9 °F 70% 29.96 in 10.0 mi SSE 3.5 mph - N/A   Clear
5:55 PM 42.8 °F 41.1 °F 34.9 °F 74% 29.97 in 10.0 mi SSE 3.5 mph - N/A   Clear
6:15 PM 41.9 °F - 34.3 °F 75% 29.98 in 10.0 mi Calm Calm - N/A   Clear
6:35 PM 41.7 °F - 34.0 °F 74% 29.98 in 10.0 mi Calm Calm - N/A   Clear
6:55 PM 41.5 °F - 33.8 °F 74% 29.99 in 10.0 mi Calm Calm - N/A   Clear
7:15 PM 40.5 °F - 33.1 °F 75% 30.00 in 10.0 mi Calm Calm - N/A   Clear
7:35 PM 38.1 °F - 33.3 °F 83% 30.00 in 10.0 mi Calm Calm - N/A   Clear
7:55 PM 38.5 °F - 32.4 °F 79% 30.00 in 10.0 mi Calm Calm - N/A   Clear
8:15 PM 37.0 °F - 32.5 °F 84% 30.01 in 10.0 mi Calm Calm - N/A   Clear
8:35 PM 36.7 °F - 32.9 °F 86% 30.01 in 10.0 mi Calm Calm - N/A   Clear
8:55 PM 36.0 °F - 32.4 °F 87% 30.02 in 10.0 mi Calm Calm - N/A   Clear
9:15 PM 35.1 °F - 32.0 °F 89% 30.02 in 10.0 mi Calm Calm - N/A   Clear
9:35 PM 36.1 °F - 31.8 °F 84% 30.03 in 10.0 mi Calm Calm - N/A   Clear
9:55 PM 34.3 °F - 31.6 °F 90% 30.03 in 10.0 mi Calm Calm - N/A   Clear
10:15 PM 33.8 °F - 31.1 °F 90% 30.03 in 10.0 mi Calm Calm - N/A   Clear
10:35 PM 34.0 °F - 31.6 °F 91% 30.04 in 10.0 mi Calm Calm - N/A   Clear
10:55 PM 33.4 °F - 31.1 °F 91% 30.04 in 10.0 mi Calm Calm - N/A   Clear
11:15 PM 32.7 °F 29.6 °F 30.9 °F 93% 30.05 in 10.0 mi ENE 3.5 mph - N/A   Clear
11:35 PM 32.5 °F 29.3 °F 30.7 °F 93% 30.06 in 10.0 mi NE 3.5 mph - N/A   Clear
11:55 PM 32.5 °F 29.3 °F 30.7 °F 93% 30.06 in 10.0 mi NE 3.5 mph - N/A   Clear